This demonstration page uses our WeatherBlox Daily Observations layout. Learn more.

Left ArrowRight Arrow

Hourly Observations for May 18, 2017

Temp ( °F °C ) Dew Point ( °F °C ) Humidity (%) Winds ( mph kmh ) Pressure ( in mb ) Visibility ( mi km ) Precip ( " mm )
12:56 am 00:56 Cloudy 59 14.9 51 10.5 75 75 W 17 28 29.64 1004 10 16 0.00 0.00
1:03 am 01:03 Cloudy with Drizzle 59 15 52 11 77 77 W 18 30 29.64 1004 10 16 0.00 0.00
1:12 am 01:12 Cloudy 59 15 52 11 77 77 W 16 26 29.65 1004 10 16 0.00 0.00
1:56 am 01:56 Cloudy 58 14.2 50 10 76 76 WNW 22 35 29.65 1004 10 16 0.00 0.03
2:56 am 02:56 Cloudy 57 13.7 49 9.7 77 77 WNW 16 26 29.70 1006 10 16 0.00 0.00
3:56 am 03:56 Cloudy 56 13.5 49 9.5 77 77 NW 17 28 29.73 1007 10 16 0.00 0.00
4:56 am 04:56 Cloudy 56 13.2 49 9.4 78 78 WNW 15 24 29.76 1008 10 16 0.00 0.00
5:56 am 05:56 Cloudy 55 13 49 9.4 79 79 WNW 10 17 29.78 1009 10 16 0.00 0.00
6:56 am 06:56 Cloudy 56 13.1 49 9.7 80 80 NNW 14 22 29.80 1009 10 16 0.00 0.00
7:56 am 07:56 Cloudy 57 13.7 49 9.7 77 77 N 12 19 29.82 1010 10 16 0.00 0.00
8:56 am 08:56 Cloudy 57 14.1 50 9.9 76 76 N 12 19 29.84 1011 10 16 0.00 0.00
9:56 am 09:56 Cloudy 58 14.7 50 10.1 74 74 N 8 13 29.88 1012 10 16 0.00 0.00
10:26 am 10:26 Cloudy 59 15 50 10 72 72 N 10 17 29.88 1012 10 16 0.00 0.00
10:56 am 10:56 Cloudy 59 15 50 10.2 73 73 N 10 17 29.91 1013 10 16 0.00 0.00
11:56 am 11:56 Cloudy 61 16.2 51 10.5 69 69 NNE 8 13 29.91 1013 10 16 0.00 0.00
12:56 pm 12:56 Cloudy 62 16.6 51 10.4 67 67 NNE 13 20 29.91 1013 10 16 0.00 0.00
1:56 pm 13:56 Cloudy 62 16.9 51 10.7 67 67 NE 9 15 29.91 1013 10 16 0.00 0.00
2:56 pm 14:56 Cloudy 64 17.5 51 10.8 65 65 NE 12 19 29.91 1013 10 16 0.00 0.00
3:56 pm 15:56 Cloudy 64 17.5 52 11.1 66 66 NE 10 17 29.93 1014 10 16 0.00 0.00
4:56 pm 16:56 Mostly Cloudy 64 17.6 53 11.4 67 67 NE 14 22 29.93 1013 10 16 0.00 0.00
5:56 pm 17:56 Sunny 63 17.2 50 10.1 63 63 NE 17 28 29.85 1011 10 16 0.00 0.00
6:56 pm 18:56 Mostly Sunny 59 15.2 48 9.1 67 67 NE 15 24 29.91 1013 10 16 0.00 0.00
7:56 pm 19:56 Mostly Sunny 58 14.4 48 9 70 70 NE 12 19 29.94 1014 10 16 0.00 0.00
8:46 pm 20:46 Mostly Cloudy with Light Rain 57 14 48 9 72 72 NE 13 20 29.93 1014 10 16 0.00 0.00
8:56 pm 20:56 Mostly Cloudy with Light Rain 57 14 49 9.4 74 74 NNE 14 22 29.91 1013 10 16 0.00 0.03
9:28 pm 21:28 Partly Cloudy with Thunderstorms 55 13 48 9 77 77 NNE 12 19 29.95 1014 10 16 0.00 0.00
9:43 pm 21:43 Partly Cloudy with Light Rain 55 13 50 10 82 82 SE 9 15 30.01 1016 10 16 0.00 0.00
9:56 pm 21:56 Mostly Cloudy with Light Rain 56 13.2 50 9.8 80 80 ENE 9 15 29.99 1016 10 16 0.01 0.25
10:00 pm 22:00 Mostly Cloudy with Thunderstorms 55 13 50 10 82 82 ENE 9 15 29.99 1016 10 16 0.00 0.00
10:18 pm 22:18 Partly Cloudy with Rain 55 13 50 10 82 82 NE 10 17 29.99 1016 10 16 0.00 0.00
10:38 pm 22:38 Mostly Clear with Rain 54 12 50 10 88 88 NE 8 13 30.00 1016 7 11 0.00 0.00
10:56 pm 22:56 Mostly Cloudy with Heavy Rain 54 12 50 10.1 88 88 ENE 13 20 30.00 1016 4 6 0.17 4.32
11:10 pm 23:10 Cloudy with Strong Thunderstorms 54 12 50 10 88 88 NE 12 19 30.00 1016 4 6 0.00 0.00
11:32 pm 23:32 Cloudy with Thunderstorms 54 12 50 10 88 88 ENE 12 19 29.99 1016 6 10 0.00 0.00
11:50 pm 23:50 Cloudy with Strong Thunderstorms 54 12 50 10 88 88 ENE 12 19 29.98 1015 5 8 0.00 0.00
11:56 pm 23:56 Cloudy with Strong Thunderstorms 53 11.5 50 10.2 92 92 ENE 8 13 29.98 1015 5 8 0.00 0.00

Powered by AerisWeather